sat.trackr.live / text

‹ back to catalog

STARLINK-3780

NORAD 52278 · 2022-041T

PAYLOAD ACTIVE UNKNOWN

§ Identity

Operator
Country
US
Launch date
2022-04-21
Launch site
AFETR
Launch vehicle
Mass (kg)
RCS (m²)

Purposes: comms

External: N2YO · Heavens-Above · Gunter

§ Orbital elements

Epoch: 2026-05-25T02:36:41.247072Z

Period
95.44 min
Inclination
53.2133°
Eccentricity
0.0001216
Mean motion
15.08837330 rev/d
Perigee alt
538.9 km
Apogee alt
540.6 km
Semi-major
6,917.9 km
B*
-2.1828e-5
RAAN
126.0588°
Arg perigee
90.6996°
Mean anomaly
269.4136°
Rev number
22,590

§ Raw data

STARLINK-37801 52278U 22041T   26145.10881073 -.00000635  00000+0 -21828-4 0  99992 52278  53.2133 126.0588 0001216  90.6996 269.4136 15.08837330225909

JSON: /api/v1/satellites/52278 · /tle

For live sub-satellite position, see the globe view (requires WebGL).

§ Visibility from observer

Set your observer location to see the next 7 days of passes ≥ 10°. The values pass through the URL so the page stays shareable.

No JS? Fill the form by hand. The geolocation button needs JavaScript.